User: anonymous
Location: NJAA Observatory
(40.6819°N, 74.8979°W)
Time: 05:42:55
(UTC-04:00)
Language:

Iridium 56 - Orbit

View from above orbital plane
View from above orbital plane
View from above satellite
View from above satellite

Ground track
Ground track

The orbit data is extracted from the following two-line orbital elements,

1 25170U 98010B   14292.48537853  .00000033  00000-0  48063-5 0  7152
2 25170 086.4018 036.6173 0002041 111.7042 020.6575 14.34215855872485
Epoch (UTC): 19 October 2014 11:38:56
Eccentricity: 0.0002041
inclination: 86.4018°
perigee height: 776 km
apogee height: 779 km
right ascension of ascending node: 36.6173°
argument of perigee: 111.7042°
revolutions per day: 14.34215855
mean anomaly at epoch: 20.6575°
orbit number at epoch: 87248

The dashed part of the orbit path shows where the satellite is in the earth's shadow,  

DLR